Weather History for KJDD - May, 2014

Change the Weather History Date:

Monday, May 26, 2014

  Actual Average (KTYR) Record (KTYR)
Temperature  
Mean Temperature 72 °F 76 °F  
Max Temperature 80 °F 85 °F 98 °F (1896)
Min Temperature 64 °F 66 °F 46 °F (1979)
Degree Days  
Heating Degree Days 0 0  
Month to date heating degree days 6  
Since 1 July heating degree days 2268  
Cooling Degree Days 7 11  
Month to date cooling degree days 201  
Year to date cooling degree days 313  
Growing Degree Days 22 (Base 50)    
Moisture  
Dew Point 69 °F    
Average Humidity 82    
Maximum Humidity 100    
Minimum Humidity 65    
Precipitation  
Precipitation 0.00 in 0.15 in 2.00 in (1924)
Month to date precipitation 3.86  
Year to date precipitation 18.02  
Snow  
Snow 0.00 in - - ()
Month to date snowfall  
Since 1 July snowfall  
Snow Depth -    
Sea Level Pressure  
Sea Level Pressure 30.03 in    
Wind  
Wind Speed 5 mph (SSE)    
Max Wind Speed 12 mph    
Max Gust Speed 16 mph    
Visibility 9 miles    
Events      
T = Trace of Precipitation, MM = Missing Value Source: NWS Daily Summary

Daily Weather History Graph

Daily Weather History Graph

Search for Another Location

Airport or City:

Trip Planner

Search our weather history database for the weather conditions in past years. The results will help you decide how hot, cold, wet, or windy it might be!

Date:

Astronomy

May. 26, 2014 Rise Set
Actual Time 6:16 AM CDT 8:21 PM CDT
Civil Twilight 5:49 AM CDT 8:49 PM CDT
Nautical Twilight 5:15 AM CDT 9:23 PM CDT
Astronomical Twilight 4:39 AM CDT 9:59 PM CDT
Moon 4:51 AM CDT (5/26) 6:31 PM CDT (5/26)
Length of Visible Light 15h 00m
Length of Day
14h 04m
Waning Crescent, 5% of the Moon is Illuminated
May 26
Waning Crescent
May 28
New
Jun 5
First Quarter
Jun 12
Full
Jun 19
Last Quarter

Hourly Weather History & Observations

Time (CDT) Temp. Heat Index Dew Point Humidity Pressure Visibility Wind Dir Wind Speed Gust Speed Precip Events Conditions
12:15 AM 77.0 °F - 68.0 °F 74% 30.01 in 10.0 mi SSE 5.8 mph - N/A   Clear
12:35 AM 77.0 °F - 69.8 °F 78% 30.01 in 10.0 mi SSE 8.1 mph - N/A   Clear
12:55 AM 75.2 °F - 69.8 °F 83% 30.01 in 10.0 mi SSE 6.9 mph - N/A   Clear
1:15 AM 75.2 °F - 69.8 °F 83% 29.99 in 10.0 mi SSE 11.5 mph - N/A   Clear
1:55 AM 75.2 °F - 69.8 °F 83% 29.99 in 10.0 mi SSE 9.2 mph 16.1 mph N/A   Clear
2:15 AM 75.2 °F - 69.8 °F 83% 30.00 in 10.0 mi South 6.9 mph - N/A   Clear
2:35 AM 75.2 °F - 69.8 °F 83% 30.00 in 10.0 mi South 5.8 mph - N/A   Clear
2:55 AM 75.2 °F - 69.8 °F 83% 30.01 in 10.0 mi South 3.5 mph - N/A   Clear
3:15 AM 75.2 °F - 69.8 °F 83% 30.02 in 8.0 mi SSW 5.8 mph - N/A   Clear
3:35 AM 73.4 °F - 69.8 °F 88% 30.02 in 10.0 mi Calm Calm - N/A   Clear
3:55 AM 73.4 °F - 69.8 °F 88% 30.02 in 10.0 mi South 3.5 mph - N/A   Clear
4:15 AM 73.4 °F - 69.8 °F 88% 30.02 in 10.0 mi South 5.8 mph - N/A   Clear
4:35 AM 73.4 °F - 69.8 °F 88% 30.02 in 10.0 mi SSE 4.6 mph - N/A   Clear
4:55 AM 73.4 °F - 69.8 °F 88% 30.02 in 10.0 mi SE 4.6 mph - N/A   Clear
5:15 AM 73.4 °F - 69.8 °F 88% 30.03 in 10.0 mi SSE 3.5 mph - N/A   Clear
5:35 AM 71.6 °F - 69.8 °F 94% 30.03 in 9.0 mi Calm Calm - N/A   Clear
5:55 AM 71.6 °F - 69.8 °F 94% 30.05 in 9.0 mi Calm Calm - N/A   Mostly Cloudy
6:15 AM 71.6 °F - 69.8 °F 94% 30.04 in 9.0 mi SE 3.5 mph - N/A   Scattered Clouds
6:35 AM 71.6 °F - 69.8 °F 94% 30.06 in 7.0 mi South 3.5 mph - N/A   Clear
6:55 AM 71.6 °F - 69.8 °F 94% 30.06 in 6.0 mi SSE 3.5 mph - N/A   Partly Cloudy
7:15 AM 71.6 °F - 69.8 °F 94% 30.07 in 6.0 mi Calm Calm - N/A   Scattered Clouds
7:35 AM 71.6 °F - 69.8 °F 94% 30.06 in 5.0 mi SE 3.5 mph - N/A   Partly Cloudy
7:55 AM 73.4 °F - 69.8 °F 88% 30.06 in 6.0 mi SSE 3.5 mph - N/A   Partly Cloudy
8:15 AM 73.4 °F - 69.8 °F 88% 30.07 in 7.0 mi SSE 5.8 mph - N/A   Partly Cloudy
8:35 AM 73.4 °F - 69.8 °F 88% 30.08 in 7.0 mi South 4.6 mph - N/A   Clear
8:55 AM 73.4 °F - 69.8 °F 88% 30.09 in 6.0 mi SSE 4.6 mph - N/A   Clear
9:15 AM 73.4 °F - 69.8 °F 88% 30.09 in 8.0 mi SSE 4.6 mph - N/A   Scattered Clouds
9:35 AM 73.4 °F - 69.8 °F 88% 30.09 in 7.0 mi SSE 6.9 mph - N/A   Mostly Cloudy
9:55 AM 73.4 °F - 69.8 °F 88% 30.08 in 7.0 mi SSE 5.8 mph - N/A   Mostly Cloudy
10:15 AM 75.2 °F - 69.8 °F 83% 30.07 in 7.0 mi SSE 5.8 mph - N/A   Scattered Clouds
10:35 AM 75.2 °F - 69.8 °F 83% 30.06 in 8.0 mi SSE 6.9 mph - N/A   Scattered Clouds
10:55 AM 75.2 °F - 69.8 °F 83% 30.05 in 7.0 mi SE 4.6 mph - N/A   Scattered Clouds
11:15 AM 75.2 °F - 69.8 °F 83% 30.04 in 8.0 mi ENE 4.6 mph - N/A   Partly Cloudy
11:35 AM 77.0 °F - 69.8 °F 78% 30.06 in 8.0 mi SE 5.8 mph - N/A   Scattered Clouds
11:55 AM 77.0 °F - 69.8 °F 78% 30.07 in 8.0 mi SSE 4.6 mph - N/A   Mostly Cloudy
12:15 PM 78.8 °F - 71.6 °F 78% 30.08 in 7.0 mi SSE 4.6 mph - N/A   Mostly Cloudy
12:35 PM 78.8 °F - 69.8 °F 74% 30.07 in 7.0 mi SE 9.2 mph - N/A   Mostly Cloudy
12:55 PM 78.8 °F - 69.8 °F 74% 30.06 in 7.0 mi SE 5.8 mph - N/A   Scattered Clouds
1:15 PM 80.6 °F 83.9 °F 69.8 °F 70% 30.06 in 7.0 mi South 4.6 mph - N/A   Mostly Cloudy
1:55 PM 80.6 °F 83.2 °F 68.0 °F 65% 30.05 in 9.0 mi SW 4.6 mph - N/A   Mostly Cloudy
2:15 PM 80.6 °F 83.2 °F 68.0 °F 65% 30.06 in 8.0 mi South 8.1 mph - N/A   Scattered Clouds
2:35 PM 80.6 °F 83.2 °F 68.0 °F 65% 30.04 in 9.0 mi SSE 6.9 mph - N/A   Partly Cloudy
2:55 PM 80.6 °F 83.2 °F 68.0 °F 65% 30.04 in 8.0 mi South 8.1 mph - N/A   Clear
3:15 PM 80.6 °F 83.2 °F 68.0 °F 65% 30.04 in 8.0 mi SE 8.1 mph - N/A   Partly Cloudy
3:35 PM 80.6 °F 83.2 °F 68.0 °F 65% 30.04 in 9.0 mi SSE 6.9 mph - N/A   Partly Cloudy
3:55 PM 80.6 °F 83.9 °F 69.8 °F 70% 30.04 in 9.0 mi South 5.8 mph - N/A   Partly Cloudy
4:15 PM 78.8 °F - 69.8 °F 74% 30.01 in 8.0 mi South 4.6 mph - N/A   Clear
4:35 PM 78.8 °F - 69.8 °F 74% 30.00 in 8.0 mi South 4.6 mph - N/A   Clear
4:55 PM 78.8 °F - 69.8 °F 74% 30.01 in 9.0 mi SSE 6.9 mph - N/A   Mostly Cloudy
5:15 PM 78.8 °F - 69.8 °F 74% 29.99 in 9.0 mi SSE 6.9 mph - N/A   Scattered Clouds
5:35 PM 78.8 °F - 69.8 °F 74% 29.98 in 8.0 mi SE 5.8 mph - N/A   Mostly Cloudy
5:55 PM 77.0 °F - 69.8 °F 78% 29.98 in 9.0 mi ESE 4.6 mph - N/A   Overcast
6:15 PM 77.0 °F - 69.8 °F 78% 29.99 in 8.0 mi SE 3.5 mph - N/A   Overcast
6:35 PM 77.0 °F - 69.8 °F 78% 29.99 in 9.0 mi SSE 4.6 mph - N/A   Scattered Clouds
6:55 PM 75.2 °F - 66.2 °F 73% 29.97 in 10.0 mi South 3.5 mph - N/A   Clear
7:15 PM 75.2 °F - 66.2 °F 73% 29.98 in 9.0 mi South 4.6 mph - N/A   Clear
7:35 PM 73.4 °F - 66.2 °F 78% 29.98 in 10.0 mi SSW 4.6 mph - N/A   Clear
7:55 PM 73.4 °F - 64.4 °F 73% 29.98 in 10.0 mi South 3.5 mph - N/A   Clear
8:15 PM 73.4 °F - 64.4 °F 73% 29.98 in 9.0 mi Calm Calm - N/A   Clear
8:35 PM 71.6 °F - 64.4 °F 78% 29.99 in 10.0 mi Calm Calm - N/A   Clear
8:55 PM 69.8 °F - 66.2 °F 88% 29.99 in 10.0 mi Calm Calm - N/A   Clear
9:15 PM 69.8 °F - 64.4 °F 83% 30.00 in 10.0 mi Calm Calm - N/A   Clear
9:35 PM 68.0 °F - 66.2 °F 94% 30.01 in 10.0 mi SSE 3.5 mph - N/A   Clear
9:55 PM 68.0 °F - 64.4 °F 88% 30.01 in 10.0 mi SE 3.5 mph - N/A   Clear
10:15 PM 68.0 °F - 64.4 °F 88% 30.02 in 10.0 mi Calm Calm - N/A   Clear
10:35 PM 66.2 °F - 64.4 °F 94% 30.02 in 10.0 mi Calm Calm - N/A   Clear
11:15 PM 64.4 °F - 64.4 °F 100% 30.02 in 9.0 mi Calm Calm - N/A   Clear
11:35 PM 64.4 °F - 64.4 °F 100% 30.02 in 8.0 mi Calm Calm - N/A   Clear
11:55 PM 64.4 °F - 64.4 °F 100% 30.01 in 8.0 mi Calm Calm - N/A   Clear